Temp
11 10 9 9 9 8 8 8 8 8 7 6 5 5 4 3 3 2 2 1 1 0 -0 -1 -2 -3 -3 -4 -5 -6 -6 -7 -8 -7 -8 -8 -8 -8 -8 -8 -8 -8 -8
9 9 9 9 8 8 7 7 7 6 6 5 4 4 3 3 2 2 1 1 0 -0 -1 -2 -3 -4 -4 -5 -6 -6 -7 -8 -8 -8 -8 -8 -8 -8 -8 -8 -8 -8 -9
9 8 8 8 7 7 7 7 6 5 5 4 4 3 2 2 1 1 1 0 -0 -1 -2 -3 -4 -5 -5 -6 -7 -8 -8 -8 -9 -9 -8 -7 -8 -8 -8 -9 -9 -9 -9
8 8 8 7 7 6 6 6 5 4 4 3 3 2 2 1 1 0 -0 -1 -1 -2 -3 -4 -5 -6 -7 -7 -8 -8 -8 -8 -8 -8 -8 -8 -8 -8 -9 -9 -9 -9 -9
7 7 7 6 6 6 5 4 4 4 3 2 2 2 1 1 0 -0 -1 -1 -2 -3 -4 -5 -6 -7 -8 -8 -8 -8 -8 -8 -8 -8 -8 -8 -9 -9 -9 -10 -10 -9 -9
7 6 6 6 5 5 4 4 3 3 2 2 1 1 0 -0 -0 -1 -2 -3 -4 -5 -5 -6 -7 -8 -8 -9 -9 -9 -8 -8 -8 -8 -9 -9 -9 -9 -9 -10 -9 -10 -10
6 6 5 5 4 4 3 3 2 2 1 1 1 0 -0 -1 -1 -2 -3 -4 -5 -5 -5 -7 -8 -8 -9 -9 -9 -9 -8 -8 -9 -9 -9 -10 -10 -9 -9 -9 -10 -10 -10
5 5 4 4 4 3 3 2 2 1 1 0 -0 -0 -1 -1 -2 -3 -4 -4 -5 -6 -7 -8 -8 -9 -9 -9 -9 -8 -8 -9 -10 -10 -10 -10 -9 -9 -10 -10 -10 -10 -10
5 4 4 3 3 2 2 2 1 1 0 -0 -0 -1 -1 -2 -3 -4 -4 -5 -6 -7 -8 -8 -9 -9 -9 -8 -8 -9 -9 -10 -9 -9 -10 -10 -10 -9 -10 -10 -10 -11 -11
4 3 3 2 2 2 1 1 0 0 -0 -1 -1 -2 -3 -3 -4 -4 -5 -7 -9 -9 -9 -9 -9 -9 -9 -8 -9 -9 -10 -10 -9 -10 -10 -9 -8 -8 -8 -10 -10 -11 -12
3 3 2 2 2 2 1 0 -0 -0 -1 -1 -2 -2 -3 -4 -4 -5 -6 -9 -9 -9 -9 -9 -9 -10 -9 -9 -10 -10 -11 -9 -10 -10 -9 -8 -8 -9 -8 -8 -9 -10 -10
2 2 2 2 1 1 0 -0 -1 -1 -2 -2 -2 -2 -3 -4 -5 -6 -7 -9 -9 -9 -9 -9 -10 -9 -10 -10 -10 -10 -10 -11 -10 -9 -9 -9 -9 -8 -8 -8 -8 -8 -8
2 2 1 1 0 -0 -1 -1 -1 -2 -3 -3 -4 -4 -4 -4 -6 -7 -8 -10 -9 -9 -9 -10 -10 -11 -10 -9 -9 -10 -10 -10 -10 -11 -11 -9 -9 -8 -8 -8 -7 -8 -7
1 1 0 -0 -0 -1 -1 -2 -3 -3 -4 -4 -4 -5 -5 -6 -7 -8 -10 -10 -9 -9 -10 -10 -10 -10 -10 -9 -9 -9 -10 -10 -11 -11 -10 -9 -9 -8 -8 -8 -8 -8 -8
1 0 -0 -1 -1 -1 -2 -3 -3 -4 -5 -5 -6 -7 -8 -8 -9 -10 -10 -10 -9 -10 -10 -10 -10 -10 -9 -10 -9 -9 -9 -10 -10 -9 -9 -9 -9 -9 -8 -8 -8 -8 -8
0 -0 -1 -1 -2 -2 -3 -3 -4 -4 -5 -6 -6 -7 -8 -8 -10 -10 -10 -10 -10 -11 -11 -10 -10 -10 -11 -10 -10 -10 -9 -9 -9 -9 -9 -9 -9 -9 -9 -8 -8 -8 -8
-1 -1 -2 -2 -3 -3 -3 -3 -3 -3 -5 -6 -7 -7 -8 -8 -9 -11 -10 -11 -11 -10 -10 -10 -10 -11 -11 -10 -10 -10 -9 -9 -9 -9 -9 -9 -9 -10 -9 -9 -8 -8 -8
-2 -2 -2 -3 -3 -3 -4 -4 -5 -6 -6 -6 -6 -8 -8 -8 -8 -11 -12 -10 -10 -10 -10 -11 -11 -11 -10 -10 -10 -10 -9 -8 -8 -9 -9 -9 -9 -9 -9 -8 -8 -8 -8
-2 -2 -3 -3 -4 -4 -5 -6 -6 -7 -7 -8 -8 -8 -8 -9 -9 -10 -11 -11 -11 -10 -10 -11 -11 -10 -10 -10 -10 -9 -9 -8 -9 -9 -8 -8 -8 -9 -8 -8 -8 -8 -8
-3 -3 -3 -4 -4 -5 -6 -6 -7 -7 -8 -8 -8 -9 -9 -10 -10 -10 -10 -11 -11 -11 -11 -11 -10 -10 -10 -10 -9 -9 -8 -8 -8 -8 -8 -8 -8 -8 -8 -8 -8 -8 -7
-3 -4 -4 -5 -5 -6 -6 -7 -8 -8 -9 -9 -9 -10 -10 -12 -11 -11 -11 -11 -11 -11 -11 -11 -10 -10 -9 -9 -9 -8 -8 -8 -8 -8 -8 -8 -7 -8 -8 -8 -8 -7 -7
-4 -4 -5 -5 -6 -7 -7 -8 -8 -9 -9 -10 -10 -10 -10 -11 -11 -11 -11 -11 -10 -11 -11 -10 -10 -9 -9 -8 -8 -8 -7 -7 -7 -8 -8 -7 -7 -7 -8 -7 -7 -7 -7
-5 -5 -5 -6 -7 -7 -8 -8 -9 -9 -10 -10 -10 -11 -11 -11 -11 -11 -11 -10 -10 -10 -10 -10 -9 -9 -8 -8 -8 -7 -7 -7 -7 -7 -7 -7 -7 -7 -7 -7 -7 -7 -7
-5 -6 -6 -7 -7 -8 -8 -9 -9 -10 -10 -11 -11 -11 -11 -11 -11 -11 -11 -10 -10 -10 -9 -9 -9 -8 -8 -8 -7 -7 -7 -7 -7 -7 -7 -7 -7 -7 -7 -7 -7 -7 -7
-6 -6 -7 -8 -8 -8 -9 -9 -10 -10 -11 -11 -11 -11 -11 -12 -11 -11 -10 -10 -10 -9 -9 -8 -8 -8 -7 -7 -7 -7 -7 -7 -7 -7 -7 -7 -7 -7 -7 -7 -7 -8 -7
-6 -7 -8 -8 -9 -9 -10 -10 -10 -11 -11 -11 -11 -11 -12 -12 -11 -11 -10 -10 -10 -9 -8 -8 -8 -7 -7 -7 -7 -7 -7 -7 -7 -7 -7 -7 -7 -7 -7 -7 -7 -7 -7
Height
1445 1450 1456 1462 1468 1474 1479 1481 1483 1485 1487 1488 1488 1488 1487 1486 1485 1483 1482 1479 1477 1474 1471 1467 1465 1461 1458 1454 1451 1447 1442 1438 1426 1407 1411 1406 1402 1398 1394 1390 1385 1379 1372
1444 1450 1457 1462 1468 1473 1478 1480 1482 1483 1485 1486 1486 1485 1484 1483 1481 1480 1478 1475 1473 1469 1466 1462 1459 1455 1451 1448 1443 1439 1435 1431 1424 1408 1401 1397 1395 1389 1385 1379 1375 1369 1362
1444 1451 1457 1463 1468 1473 1476 1479 1481 1481 1482 1483 1483 1483 1482 1480 1478 1475 1473 1471 1468 1464 1460 1457 1453 1449 1444 1440 1436 1432 1427 1422 1417 1409 1396 1392 1386 1382 1375 1370 1364 1357 1353
1445 1452 1458 1463 1468 1472 1475 1477 1479 1480 1480 1481 1481 1480 1478 1476 1474 1472 1469 1465 1462 1459 1455 1451 1447 1443 1438 1434 1430 1426 1421 1416 1410 1403 1395 1387 1382 1376 1369 1361 1353 1348 1343
1445 1453 1459 1463 1467 1471 1474 1476 1477 1478 1478 1478 1478 1476 1474 1473 1470 1467 1463 1460 1456 1453 1449 1446 1441 1437 1433 1430 1425 1420 1415 1409 1402 1395 1388 1382 1375 1369 1362 1355 1347 1339 1332
1447 1453 1459 1462 1466 1470 1472 1474 1475 1476 1476 1476 1475 1473 1471 1468 1465 1462 1459 1455 1451 1447 1443 1439 1434 1430 1425 1421 1417 1414 1410 1403 1396 1390 1383 1376 1370 1364 1356 1349 1342 1334 1319
1447 1454 1458 1462 1465 1468 1471 1472 1474 1474 1474 1473 1471 1469 1466 1463 1460 1457 1454 1449 1445 1441 1437 1432 1427 1423 1418 1412 1408 1404 1401 1396 1393 1385 1377 1371 1363 1358 1351 1343 1335 1328 1319
1448 1453 1457 1461 1464 1467 1469 1471 1472 1472 1471 1470 1468 1465 1462 1459 1455 1452 1448 1444 1439 1435 1431 1426 1420 1415 1411 1407 1402 1396 1391 1387 1382 1377 1371 1363 1358 1352 1347 1338 1330 1320 1311
1448 1453 1457 1460 1464 1466 1468 1469 1470 1470 1468 1466 1464 1460 1457 1454 1450 1446 1442 1437 1433 1429 1424 1419 1415 1410 1406 1402 1396 1389 1383 1377 1373 1368 1362 1357 1350 1343 1338 1331 1323 1315 1303
1448 1453 1457 1460 1463 1465 1466 1467 1468 1467 1465 1463 1460 1456 1452 1450 1446 1442 1437 1432 1427 1423 1418 1414 1409 1405 1400 1395 1390 1383 1375 1369 1364 1358 1353 1346 1341 1335 1330 1325 1318 1309 1301
1449 1453 1457 1460 1462 1464 1465 1465 1465 1464 1461 1459 1457 1453 1450 1445 1440 1436 1432 1428 1423 1418 1413 1408 1403 1398 1394 1389 1384 1377 1370 1366 1359 1352 1345 1339 1333 1328 1323 1318 1312 1305 1296
1450 1454 1457 1459 1461 1462 1463 1463 1462 1460 1458 1455 1452 1450 1445 1441 1435 1431 1426 1423 1419 1414 1408 1402 1397 1393 1387 1381 1375 1369 1366 1360 1352 1346 1340 1332 1326 1321 1316 1311 1305 1298 1291
1451 1454 1457 1459 1460 1461 1461 1460 1459 1457 1454 1450 1447 1443 1439 1435 1430 1426 1421 1417 1414 1409 1404 1398 1392 1385 1379 1373 1368 1364 1359 1352 1346 1340 1334 1328 1322 1316 1309 1303 1296 1290 1282
1452 1454 1457 1459 1459 1459 1459 1458 1455 1453 1450 1446 1442 1438 1433 1429 1424 1420 1416 1412 1407 1402 1398 1391 1385 1380 1374 1369 1363 1359 1354 1348 1342 1336 1329 1323 1316 1310 1304 1297 1289 1281 1273
1453 1455 1457 1458 1458 1458 1457 1455 1452 1449 1446 1442 1439 1434 1429 1424 1420 1418 1413 1408 1404 1399 1392 1385 1379 1373 1368 1363 1359 1355 1349 1343 1338 1332 1325 1318 1311 1305 1299 1292 1285 1277 1271
1453 1455 1456 1457 1456 1455 1454 1452 1450 1447 1444 1440 1436 1431 1426 1421 1417 1413 1409 1405 1399 1392 1385 1380 1374 1370 1365 1360 1355 1349 1344 1339 1333 1327 1321 1314 1307 1300 1293 1287 1282 1275 1267
1453 1455 1455 1455 1453 1452 1450 1448 1446 1444 1440 1436 1431 1427 1423 1418 1412 1408 1405 1399 1392 1387 1382 1376 1371 1366 1361 1356 1351 1346 1339 1334 1328 1322 1316 1310 1304 1297 1291 1284 1278 1272 1265
1453 1453 1453 1452 1451 1449 1447 1445 1442 1438 1433 1430 1428 1422 1418 1413 1408 1403 1398 1392 1387 1382 1378 1372 1368 1363 1358 1353 1347 1341 1335 1329 1324 1318 1312 1306 1300 1294 1287 1282 1276 1269 1263
1452 1452 1451 1450 1448 1447 1444 1442 1438 1435 1430 1425 1421 1417 1412 1408 1403 1399 1394 1388 1382 1378 1373 1369 1365 1360 1354 1349 1344 1338 1332 1326 1319 1314 1308 1302 1297 1291 1285 1280 1274 1268 1263
1451 1450 1449 1448 1446 1444 1441 1438 1434 1430 1426 1422 1417 1411 1406 1401 1397 1393 1389 1384 1380 1375 1370 1365 1361 1356 1351 1346 1340 1334 1328 1322 1316 1310 1305 1299 1294 1288 1283 1277 1272 1266 1261
1449 1448 1447 1445 1443 1441 1437 1434 1430 1427 1423 1418 1414 1410 1405 1400 1395 1390 1385 1381 1376 1372 1367 1362 1357 1353 1348 1342 1336 1330 1324 1318 1313 1307 1302 1296 1291 1285 1281 1275 1270 1265 1259
1448 1446 1445 1443 1441 1438 1434 1431 1427 1424 1420 1415 1411 1406 1402 1397 1391 1387 1382 1378 1373 1369 1364 1359 1354 1350 1344 1338 1332 1327 1321 1316 1310 1305 1299 1294 1289 1284 1279 1274 1268 1263 1258
1446 1444 1442 1440 1437 1434 1431 1427 1424 1420 1416 1412 1407 1402 1398 1393 1388 1384 1379 1375 1370 1366 1361 1356 1352 1346 1341 1336 1331 1325 1318 1313 1308 1302 1297 1292 1287 1282 1277 1272 1268 1263 1257
1444 1442 1439 1437 1434 1431 1427 1424 1421 1417 1413 1409 1404 1399 1395 1390 1386 1381 1377 1372 1367 1363 1358 1354 1349 1344 1338 1333 1328 1323 1317 1311 1305 1299 1295 1290 1286 1281 1276 1272 1267 1263 1258
1441 1438 1436 1433 1430 1427 1424 1420 1417 1413 1409 1405 1400 1396 1392 1388 1383 1379 1374 1369 1364 1360 1356 1352 1347 1341 1336 1331 1326 1321 1315 1310 1305 1300 1294 1289 1284 1280 1275 1271 1268 1264 1260
1438 1435 1433 1430 1427 1423 1420 1416 1412 1409 1405 1401 1397 1393 1389 1385 1381 1376 1371 1367 1362 1358 1355 1350 1345 1340 1334 1329 1324 1319 1314 1309 1303 1298 1293 1288 1283 1279 1275 1272 1268 1265 1261
Wind_Speed
32 31 32 31 28 24 20 15 10 6 3 4 6 9 10 13 14 15 16 18 19 20 21 23 24 25 27 27 28 28 29 28 36 52 39 40 36 34 33 30 30 31 38
33 33 33 30 26 22 17 12 8 4 3 5 7 9 11 13 15 16 17 19 20 22 23 25 26 27 28 28 28 27 27 26 31 43 45 42 39 36 34 33 39 39 34
34 33 31 27 23 19 14 10 6 3 2 6 8 10 12 14 16 18 19 20 22 23 25 26 27 27 28 28 26 25 27 26 27 35 45 46 41 33 38 43 36 37 32
33 30 28 24 20 16 12 8 5 2 4 7 9 11 13 15 17 19 21 22 24 25 25 26 26 26 27 25 25 24 24 30 33 35 40 38 35 45 43 39 40 40 38
31 28 25 22 17 13 10 6 3 3 6 8 10 13 15 17 19 21 23 24 25 26 26 26 25 25 24 23 24 26 29 31 35 38 26 39 43 40 37 39 40 43 42
28 26 23 19 15 12 8 4 2 4 7 9 12 14 16 19 21 22 24 24 25 26 27 26 26 25 27 23 26 25 25 29 36 34 42 38 38 34 41 40 40 42 45
26 24 20 16 13 9 6 2 3 5 8 11 13 16 18 20 22 23 24 24 25 25 26 26 27 27 29 29 30 28 32 25 33 35 35 33 37 39 40 43 46 42 42
25 22 18 14 11 7 3 1 4 7 10 12 15 18 20 22 23 24 25 25 25 25 25 25 27 32 29 28 31 33 38 38 30 30 29 35 35 37 39 37 38 40 43
22 19 15 12 8 5 1 3 5 8 11 14 18 20 22 22 24 25 25 25 25 25 25 27 30 26 29 28 30 37 34 33 32 28 30 30 36 31 26 27 32 35 40
20 17 13 10 6 2 2 4 7 10 14 17 19 20 22 23 24 25 24 23 23 24 25 25 26 28 27 28 32 32 33 33 33 33 35 33 27 26 25 24 29 33 36
18 14 11 8 3 3 3 6 9 13 16 18 19 20 21 23 25 25 23 19 22 25 26 28 28 28 28 31 29 29 27 29 31 33 31 30 29 28 29 28 28 29 34
15 12 9 5 3 2 5 8 12 15 17 19 20 20 22 24 25 25 22 19 21 25 27 29 31 30 31 29 27 25 24 25 28 27 29 31 32 32 30 28 29 28 29
13 10 6 4 2 3 7 10 14 16 18 20 22 24 26 27 26 25 22 23 24 24 28 29 29 31 31 28 24 22 23 25 25 27 31 31 31 31 31 32 32 30 31
12 8 5 3 2 6 10 13 15 18 19 21 24 26 28 28 27 25 26 28 27 29 30 33 32 29 26 23 23 24 26 25 24 28 31 31 32 33 34 34 35 34 36
9 6 4 2 5 8 11 14 16 18 20 22 23 25 26 27 25 22 24 25 26 28 28 29 30 28 27 25 25 27 28 28 28 29 30 33 34 33 33 32 32 32 33
6 5 2 3 7 10 13 15 16 17 19 20 22 23 24 23 23 23 22 24 25 24 26 28 28 27 26 27 28 31 30 29 29 29 31 33 33 33 34 32 28 30 32
5 2 2 6 10 13 15 17 19 18 20 22 22 22 22 24 25 22 22 25 25 25 25 26 27 26 27 27 29 31 32 30 30 31 31 30 31 31 29 29 29 30 30
2 2 6 9 12 14 16 17 20 23 26 25 22 23 24 24 25 22 23 25 27 23 23 26 26 25 26 28 30 32 32 31 31 31 30 29 28 30 30 28 28 29 30
2 5 8 11 13 15 16 18 20 22 23 25 26 25 25 25 24 24 24 24 25 25 25 25 24 25 27 29 31 31 30 32 32 30 28 29 29 30 29 27 27 26 27
5 8 10 12 13 15 17 19 21 22 23 25 26 27 28 28 28 26 24 24 24 23 24 25 25 25 28 30 30 29 32 31 31 28 29 28 29 29 28 27 26 26 25
7 9 11 12 14 17 19 20 21 22 23 24 25 25 24 24 26 25 25 24 23 23 24 24 25 26 28 29 29 30 31 30 28 29 30 28 30 29 25 23 25 24 24
8 10 12 14 16 18 19 20 21 22 23 24 25 24 23 24 25 24 24 23 22 22 22 23 24 26 28 28 27 30 30 29 27 29 28 28 30 25 25 24 24 24 22
9 11 14 15 17 18 19 19 21 22 22 23 24 25 25 25 25 24 23 22 22 21 21 21 24 26 26 25 25 28 28 28 26 26 27 30 29 28 24 23 23 22 17
11 13 15 17 18 19 19 20 20 20 21 22 23 24 25 24 24 23 22 22 21 20 20 21 24 26 25 22 25 24 24 24 24 28 28 28 25 24 19 20 18 17 14
12 15 16 18 18 19 20 20 20 20 20 21 23 24 23 23 23 22 21 21 20 21 20 21 24 24 23 23 24 23 23 22 23 23 24 22 20 18 16 15 15 14 14
15 16 17 18 18 19 20 21 21 21 20 21 22 23 22 23 22 21 21 21 22 20 21 23 23 22 22 23 22 22 24 24 23 23 21 20 18 18 15 13 13 13 12
Wind_Direction
184 180 175 172 173 175 178 179 183 197 234 291 309 318 324 326 327 326 326 325 324 322 318 316 316 314 312 310 308 304 299 295 292 303 304 311 311 311 309 307 305 301 304
175 172 172 171 172 175 177 179 185 201 262 304 318 323 325 327 325 327 327 325 321 319 319 317 316 315 314 314 311 305 302 301 297 300 310 311 312 312 310 309 308 304 301
170 171 169 170 171 174 177 181 187 209 294 319 323 324 325 325 329 328 326 322 320 321 320 319 319 318 317 315 312 310 310 302 299 298 301 314 308 312 310 310 309 309 306
168 168 169 168 169 174 178 183 192 235 311 326 325 325 328 331 329 325 323 323 321 320 319 319 318 317 317 318 316 310 305 302 303 301 302 301 308 311 311 310 311 313 311
166 167 168 168 171 175 180 185 213 290 325 329 328 329 331 329 327 326 325 324 321 319 318 319 317 317 316 311 309 306 306 304 307 305 302 310 310 310 309 312 308 310 310
167 169 170 171 172 177 183 199 262 320 335 329 328 329 329 328 327 327 326 322 319 318 319 319 318 319 323 317 311 309 304 306 303 304 310 304 305 306 312 309 309 309 307
169 170 171 172 175 179 188 217 317 335 327 327 330 331 328 328 328 327 325 320 319 319 320 321 320 324 327 322 326 316 313 307 301 303 303 301 305 312 314 309 308 305 302
170 170 170 173 178 180 189 294 326 323 326 330 330 329 330 330 328 326 326 321 319 321 323 321 326 329 325 325 317 315 311 309 307 307 303 306 307 305 303 301 301 305 307
168 170 171 172 177 179 217 316 317 323 330 329 330 332 330 328 328 329 326 323 322 324 327 329 328 320 321 320 316 314 312 308 317 316 307 302 307 308 306 307 308 312 309
168 169 169 170 173 196 304 304 320 328 329 332 333 330 329 329 328 329 331 325 323 324 327 321 320 322 321 319 316 313 309 315 323 316 310 315 318 322 327 318 317 314 311
167 167 166 167 187 264 290 320 325 328 330 329 330 331 329 328 330 332 332 326 324 325 320 321 321 325 321 316 314 307 313 316 309 311 317 323 329 330 330 328 327 322 317
165 164 168 188 221 270 311 321 328 328 327 329 330 329 329 330 333 333 332 326 326 320 320 319 325 320 315 316 317 317 314 312 316 320 326 331 331 331 332 332 331 329 324
164 169 180 193 229 297 321 326 326 328 332 332 333 332 334 333 333 333 334 332 327 324 320 321 313 318 322 322 325 327 328 329 328 328 329 329 331 332 332 334 334 333 330
166 170 182 197 286 318 322 326 333 334 334 335 335 334 333 332 335 338 337 329 332 326 325 312 317 322 325 329 331 337 338 336 330 327 329 332 334 334 334 336 335 338 335
167 173 178 249 305 320 328 335 337 337 339 337 334 331 330 330 332 327 324 328 322 320 313 319 329 333 335 338 339 341 341 339 337 335 335 334 333 333 334 336 337 337 337
166 169 213 297 321 331 335 335 336 335 335 335 331 330 329 326 325 323 328 319 320 319 321 328 332 336 337 338 339 340 341 340 340 338 336 336 334 334 334 336 338 339 338
172 191 303 331 337 336 333 333 331 333 335 335 334 333 331 328 326 329 327 322 321 328 328 332 335 337 338 340 339 338 337 341 341 338 336 338 337 336 337 339 341 341 341
162 346 343 339 336 336 336 335 335 334 334 337 339 335 332 332 332 332 328 328 330 335 335 335 335 337 339 339 338 337 338 339 338 339 340 339 341 341 341 340 342 340 342
357 345 340 337 336 335 335 335 333 333 335 337 336 336 337 335 339 337 334 334 336 336 336 335 336 338 339 337 337 337 337 339 340 339 343 343 344 342 342 342 341 342 343
344 339 337 336 336 337 335 333 334 337 339 338 338 339 338 341 338 338 338 339 337 336 335 334 338 340 339 338 338 339 340 343 343 344 344 343 343 343 341 341 343 340 341
337 336 336 338 338 335 334 335 339 339 337 337 338 340 340 332 336 338 340 340 338 336 336 337 340 340 339 338 339 340 342 344 345 345 344 344 346 345 345 345 344 344 344
337 338 340 338 336 336 338 339 338 336 336 335 338 341 340 340 341 341 340 338 338 337 338 338 340 340 339 339 339 341 341 343 343 346 346 346 347 346 346 346 348 344 340
340 341 337 335 336 338 337 337 337 336 335 337 339 340 343 343 344 342 340 340 340 342 343 341 339 340 342 342 342 341 340 343 341 345 341 343 342 344 343 341 343 343 346
340 336 336 337 337 337 336 336 336 334 335 338 339 341 342 344 343 342 341 342 344 346 347 343 342 343 343 344 344 345 344 341 341 346 344 336 334 338 342 346 352 356 1
336 336 336 336 337 336 335 334 334 335 338 339 339 340 343 343 342 343 345 348 348 349 349 346 347 346 346 345 349 348 347 349 344 342 339 337 339 343 354 352 355 359 356
337 336 336 337 335 334 333 332 334 336 338 338 340 341 341 342 344 348 352 352 350 349 348 349 351 348 348 348 352 354 355 349 352 349 345 349 354 359 4 1 5 9 6